Showing default

OPS 9316 (IDSCS 6), 2220

Orbit data source: Space-Track

OPS 9316 (IDSCS 6), 2220 is a payload satellite owned by USAF SSD (US) in GEO that was launched on Thu, 16 Jun 1966 UTC via a TITAN IIIC launch vehicle from the Air Force Eastern Test Range (AFETR). Payload-class satellites include a variety of spacecraft equipped with specific instruments for various scientific and technological missions. These include communications satellites like Starlink; space stations such as the ISS; scientific satellites like the Hubble; Earth observation satellites from companies like Planet Labs, Umbra, and HawkEye 360; GPS; miniature CubeSats for education and research; and military/defense satellites.

Not visible in the next 10 days
Identifier
2220, 1966-053G
Orbit
GEO
Country
Flag of USUS
Related business
Manufacturer
Philco-Ford WDL
Mission
Non-operational spacecraft
Bus & Motor
IDCSP, Unknown motor
Mass
45 kg wet, 45 kg dry
Launch date (UTC)
1966-06-16 (60 years ago)
Launch vehicle
TITAN IIIC
Launch site
Air Force Eastern Test Range (AFETR)
Object type
Payload
Rocket body
Debris
Shape & HBR
Unknown
Radar Cross Section
Medium (>0.1 m² and <1 m²)

Expand to show TLE details & history
Last TLE update: 23 hours ago

TLE from 23 hours ago
0 OPS 9316 (IDSCS 6)
1 02220U 66053G   26174.81877196 -.00000084  00000-0  00000-0 0  9996
2 02220   8.4834  46.0701 0065479 182.5526   2.0369  1.07156585139127
Epoch: 2026-06-23T19:39Z
TLE epoch observation values (Epoch: 2026-06-23T19:39:01.897Z)
Latitude
-0.6926°
Longitude
23.90429°
Altitude
33,696.001 km
Speed
3.164 km/s
True Right ascension
15h 22m 35s
True Declination
0° 41' 31"
Sunlit
Object was in daylight at epoch
Visualization orbit readout
Latitude
Unknown
Longitude
Unknown
Altitude
Unknown
Speed
Unknown
Apparent Right ascension
Unknown
Apparent Declination
Unknown
Sunlit
N/A
Visualization observer readout
Local Sidereal Time
05:56:33
Azimuth
Unknown
Elevation
Unknown
Doppler factor
Unknown
Orbital elements
Apogee altitude
34,225.85 km
Perigee altitude
33,697.568 km
Semi-major axis
40,339.846 km
Eccentricity
0.00655
Inclination
8.4834°
RAAN
46.0701°
Arg. of periapsis
182.5526°
True anomaly
2.06379°
Mean anomaly
2.0369°
Eccentric anomaly
2.05032°
Mean motion
0.26788 °/min
Orbital period
1,343.88 mins
BSTAR
0
Loading maneuver chart data...
Computing Atmospheric mass density...
Loading historical data...
Loading historical data...
Loading historical data...
Loading historical data...
Loading historical data...
Loading historical data...
Loading historical data...

Documentation

Showing up to 5 results
|